Hourly Weather Nachyn

Today, 9 July, Thursday

Time Temperature Precipitation Wind Pressure Humidity
00:00 +19°C° 0 mm 3 mps 754 mmHg 63%
01:00 +20°C° 0 mm 3 mps 754 mmHg 63%
02:00 +20°C° 0 mm 2 mps 754 mmHg 63%
03:00 +20°C° 0 mm 2 mps 754 mmHg 64%
04:00 +20°C° 0 mm 2 mps 754 mmHg 65%
05:00 +20°C° 0 mm 1 mps 754 mmHg 67%
06:00 +20°C° 0 mm 1 mps 755 mmHg 68%
07:00 +23°C° 0 mm 1 mps 755 mmHg 62%
08:00 +26°C° 0 mm 1 mps 755 mmHg 56%
09:00 +28°C° 0 mm 1 mps 755 mmHg 48%
10:00 +28°C° 0 mm 1 mps 755 mmHg 49%
11:00 +27°C° 0 mm 2 mps 755 mmHg 50%
12:00 +27°C° 0 mm 2 mps 754 mmHg 51%
13:00 +27°C° 0 mm 3 mps 754 mmHg 49%
14:00 +28°C° 0 mm 3 mps 754 mmHg 47%
15:00 +29°C° 0 mm 3 mps 754 mmHg 43%
16:00 +28°C° 0 mm 3 mps 754 mmHg 50%
17:00 +26°C° 0 mm 3 mps 754 mmHg 57%
18:00 +25°C° 0 mm 3 mps 754 mmHg 64%
19:00 +22°C° 0 mm 3 mps 754 mmHg 69%
20:00 +21°C° 0 mm 2 mps 755 mmHg 74%
21:00 +19°C° 0 mm 2 mps 755 mmHg 80%
22:00 +20°C° 0 mm 2 mps 756 mmHg 75%
23:00 +21°C° 0 mm 1 mps 756 mmHg 70%

Tomorrow, 10 July, Friday

Time Temperature Precipitation Wind Pressure Humidity
00:00 +21°C° 0 mm 1 mps 756 mmHg 65%
01:00 +20°C° 0 mm 1 mps 756 mmHg 67%
02:00 +20°C° 0 mm 1 mps 756 mmHg 68%
03:00 +19°C° 0 mm 1 mps 756 mmHg 70%
04:00 +19°C° 0 mm 2 mps 756 mmHg 70%
05:00 +19°C° 0 mm 2 mps 756 mmHg 69%
06:00 +19°C° 0 mm 2 mps 757 mmHg 68%
07:00 +21°C° 0 mm 2 mps 757 mmHg 65%
08:00 +24°C° 0 mm 2 mps 756 mmHg 61%
09:00 +26°C° 0 mm 2 mps 756 mmHg 58%
10:00 +27°C° 0 mm 2 mps 756 mmHg 59%
11:00 +27°C° 0 mm 2 mps 757 mmHg 60%
12:00 +28°C° 0 mm 2 mps 757 mmHg 61%
13:00 +27°C° 0 mm 2 mps 756 mmHg 64%
14:00 +27°C° 0 mm 2 mps 756 mmHg 66%
15:00 +26°C° 0 mm 3 mps 755 mmHg 69%
16:00 +25°C° 0 mm 2 mps 755 mmHg 76%
17:00 +25°C° 0 mm 1 mps 756 mmHg 83%
18:00 +24°C° 0 mm 1 mps 756 mmHg 90%
19:00 +23°C° 0 mm 1 mps 755 mmHg 92%
20:00 +22°C° 0 mm 1 mps 755 mmHg 95%
21:00 +21°C° 0 mm 1 mps 755 mmHg 97%
22:00 +21°C° 0 mm 1 mps 755 mmHg 97%
23:00 +20°C° 0 mm 2 mps 755 mmHg 97%

Day after tomorrow, 11 July, Saturday

Time Temperature Precipitation Wind Pressure Humidity
00:00 +20°C° 0 mm 2 mps 755 mmHg 97%
01:00 +20°C° 0 mm 2 mps 755 mmHg 96%
02:00 +20°C° 0 mm 3 mps 755 mmHg 95%
03:00 +20°C° 0 mm 3 mps 755 mmHg 94%
04:00 +20°C° 0 mm 3 mps 755 mmHg 94%
05:00 +20°C° 0 mm 3 mps 756 mmHg 95%
06:00 +20°C° 0 mm 4 mps 756 mmHg 95%
07:00 +21°C° 0 mm 3 mps 756 mmHg 87%
08:00 +22°C° 0 mm 3 mps 756 mmHg 79%
09:00 +24°C° 0 mm 3 mps 756 mmHg 72%
10:00 +24°C° 0 mm 3 mps 756 mmHg 69%
11:00 +25°C° 0 mm 3 mps 757 mmHg 67%
12:00 +25°C° 0 mm 3 mps 757 mmHg 64%
13:00 +25°C° 0 mm 3 mps 756 mmHg 67%
14:00 +24°C° 0 mm 3 mps 756 mmHg 70%
15:00 +23°C° 0 mm 2 mps 756 mmHg 73%
16:00 +23°C° 0 mm 2 mps 756 mmHg 76%
17:00 +22°C° 0 mm 1 mps 757 mmHg 78%
18:00 +22°C° 0 mm 1 mps 757 mmHg 81%
19:00 +21°C° 0 mm 1 mps 757 mmHg 85%
20:00 +20°C° 0 mm 1 mps 757 mmHg 90%
21:00 +18°C° 0 mm 1 mps 758 mmHg 95%
22:00 +18°C° 0 mm 1 mps 758 mmHg 94%
23:00 +18°C° 0 mm 1 mps 758 mmHg 94%

12 July, Sunday

Time Temperature Precipitation Wind Pressure Humidity
00:00 +18°C° 0 mm 1 mps 758 mmHg 93%
01:00 +18°C° 0 mm 1 mps 758 mmHg 93%
02:00 +16°C° 0 mm 1 mps 758 mmHg 93%
03:00 +16°C° 0 mm 1 mps 758 mmHg 92%
04:00 +15°C° 0 mm 0 mps 758 mmHg 92%
05:00 +16°C° 0 mm 0 mps 758 mmHg 91%
06:00 +16°C° 0 mm 0 mps 758 mmHg 90%
07:00 +18°C° 0 mm 0 mps 758 mmHg 82%
08:00 +23°C° 0 mm 1 mps 758 mmHg 74%
09:00 +25°C° 0 mm 1 mps 758 mmHg 66%
10:00 +26°C° 0 mm 1 mps 758 mmHg 64%
11:00 +26°C° 0 mm 2 mps 758 mmHg 63%
12:00 +27°C° 0 mm 3 mps 758 mmHg 62%
13:00 +26°C° 0 mm 3 mps 757 mmHg 64%
14:00 +26°C° 0 mm 3 mps 757 mmHg 66%
15:00 +25°C° 0 mm 4 mps 757 mmHg 68%
16:00 +25°C° 0 mm 4 mps 757 mmHg 72%
17:00 +23°C° 0 mm 4 mps 757 mmHg 76%
18:00 +22°C° 0 mm 4 mps 757 mmHg 79%
19:00 +21°C° 0 mm 4 mps 758 mmHg 85%
20:00 +20°C° 0 mm 3 mps 758 mmHg 91%
21:00 +18°C° 0 mm 3 mps 758 mmHg 97%
22:00 +19°C° 0 mm 3 mps 758 mmHg 97%
23:00 +19°C° 0 mm 3 mps 758 mmHg 97%

13 July, Monday

Time Temperature Precipitation Wind Pressure Humidity
00:00 +19°C° 0 mm 3 mps 759 mmHg 96%
01:00 +19°C° 0 mm 3 mps 758 mmHg 96%
02:00 +19°C° 0 mm 3 mps 758 mmHg 96%
03:00 +19°C° 0 mm 3 mps 758 mmHg 97%
04:00 +19°C° 0 mm 2 mps 758 mmHg 96%
05:00 +19°C° 0 mm 2 mps 758 mmHg 96%
06:00 +19°C° 0 mm 2 mps 758 mmHg 96%
07:00 +19°C° 0 mm 2 mps 758 mmHg 95%
08:00 +19°C° 0 mm 2 mps 758 mmHg 93%
09:00 +20°C° 0 mm 2 mps 758 mmHg 92%
10:00 +20°C° 0 mm 2 mps 758 mmHg 91%
11:00 +20°C° 0 mm 2 mps 758 mmHg 90%
12:00 +20°C° 0 mm 2 mps 758 mmHg 88%
13:00 +20°C° 0 mm 2 mps 757 mmHg 86%
14:00 +21°C° 0 mm 3 mps 757 mmHg 84%
15:00 +21°C° 0 mm 3 mps 757 mmHg 82%
16:00 +21°C° 0 mm 3 mps 757 mmHg 83%
17:00 +21°C° 0 mm 3 mps 757 mmHg 83%
18:00 +21°C° 0 mm 3 mps 757 mmHg 83%
19:00 +20°C° 0 mm 2 mps 757 mmHg 87%
20:00 +19°C° 0 mm 2 mps 758 mmHg 91%
21:00 +19°C° 0 mm 2 mps 758 mmHg 94%
22:00 +19°C° 0 mm 2 mps 758 mmHg 94%
23:00 +18°C° 0 mm 2 mps 758 mmHg 94%

14 July, Tuesday

Time Temperature Precipitation Wind Pressure Humidity
00:00 +18°C° 0 mm 2 mps 758 mmHg 94%
01:00 +18°C° 0 mm 2 mps 758 mmHg 95%
02:00 +18°C° 0 mm 1 mps 757 mmHg 95%
03:00 +16°C° 0 mm 1 mps 757 mmHg 95%
04:00 +18°C° 0 mm 1 mps 757 mmHg 95%
05:00 +18°C° 0 mm 1 mps 757 mmHg 94%
06:00 +18°C° 0 mm 1 mps 757 mmHg 94%
07:00 +20°C° 0 mm 1 mps 757 mmHg 88%
08:00 +21°C° 0 mm 1 mps 757 mmHg 82%
09:00 +22°C° 0 mm 1 mps 757 mmHg 77%
10:00 +23°C° 0 mm 1 mps 757 mmHg 73%
11:00 +25°C° 0 mm 2 mps 757 mmHg 69%
12:00 +26°C° 0 mm 2 mps 756 mmHg 65%
13:00 +26°C° 0 mm 3 mps 756 mmHg 65%
14:00 +25°C° 0 mm 3 mps 756 mmHg 66%
15:00 +25°C° 0 mm 3 mps 755 mmHg 67%
16:00 +24°C° 0 mm 3 mps 755 mmHg 71%
17:00 +22°C° 0 mm 3 mps 755 mmHg 76%
18:00 +21°C° 0 mm 3 mps 755 mmHg 80%
19:00 +20°C° 0 mm 3 mps 755 mmHg 85%
20:00 +19°C° 0 mm 3 mps 756 mmHg 90%
21:00 +18°C° 0 mm 2 mps 756 mmHg 96%
22:00 +17°C° 0 mm 2 mps 756 mmHg 96%
23:00 +17°C° 0 mm 2 mps 756 mmHg 96%
Show more